Regional Weather Roundup
Issued by NWS

Home | Current Version | Previous Version | Text Only | Print | Product List | Glossary Off
Versions: 1 2 3 4 5 6 7 8 9 10 11 12 13 14 15 16 17 18 19 20 21 22 23 24 25 26 27 28 29 30 31 32 33 34 35 36 37 38 39 40 41 42 43 44 45 46 47 48 49 50

000
ASUS45 KCYS 241410
RWRWY

WYOMING REGIONAL WEATHER ROUNDUP
NATIONAL WEATHER SERVICE CHEYENNE WY
700 AM MST FRI FEB 24 2017

NOTE:  "FAIR" INDICATES FEW OR NO CLOUDS BELOW 12,000 FEET
WITH NO SIGNIFICANT WEATHER AND/OR OBSTRUCTIONS TO VISIBILITY.

WYZ001-241500-
YELLOWSTONE NATIONAL PARK

CITY           SKY/WX    TMP DP  RH WIND       PRES   REMARKS
LK YELLOWSTONE   N/A      4   2  91 CALM      29.79R
W YELLOWSTONE  NOT AVBL

$$
WYZ002>013-054>058-071-098>099-241500-
NORTHERN WYOMING

CITY           SKY/WX    TMP DP  RH WIND       PRES   REMARKS
JACKSON        FLURRIES  16  14  93 SW5       29.83R WCI   9
CODY           FAIR      16  12  84 S5        29.90R WCI   9
GREYBULL       CLOUDY    22  20  92 CALM      29.94R
WORLAND        CLOUDY    18  17  96 S3        29.93R
SHERIDAN       CLOUDY    20  14  77 CALM      29.94R
BUFFALO        CLOUDY    18  13  80 S6        29.91R WCI  10
GILLETTE         N/A     21  18  88 MISG      29.94R FOG
HULETT         CLOUDY    21  18  86 MISG      29.97S
NEWCASTLE      LGT SNOW  19  19 100 SE3       29.97S

$$
WYZ014>020-022>026-101>103-241500-
CENTRAL WYOMING

CITY           SKY/WX    TMP DP  RH WIND       PRES   REMARKS
BIG PINEY      CLOUDY     9   6  88 W6        29.82R WCI  -1
PINEDALE       CLOUDY    14  10  85 W5        29.81R WCI   6
DUBOIS         LGT SNOW  10   5  79 SW3       29.79R
LANDER         CLOUDY    15  13  91 SW3       29.87S FOG
RIVERTON       CLOUDY    16  14  92 SW3       29.88S FOG
CASPER         CLOUDY    13  10  88 NE9       29.88R WCI   1
DOUGLAS        LGT SNOW  15  12  88 E7        29.93R FOG     WCI   5

$$
WYZ021-027>030-104>119-241500-
SOUTHERN WYOMING

CITY           SKY/WX    TMP DP  RH WIND       PRES   REMARKS
EVANSTON       CLOUDY    12   7  80 SW7       29.84R WCI   1
FORT BRIDGER   LGT SNOW  12  11  96 W13       29.86R WCI  -2
ROCK SPRINGS   CLOUDY    12   8  84 SW5       29.83R WCI   4
DIXON          LGT SNOW  15  11  87 SW8       29.84R WCI   3
RAWLINS        FLURRIES  11   6  81 NE18      29.77R WCI  -7
SARATOGA       LGT SNOW  14  10  85 SW3       29.77R
LARAMIE        CLOUDY     7   4  87 CALM      29.77R
CHEYENNE       LGT SNOW  13  10  88 N5        29.84R FOG     WCI   5
TORRINGTON     CLOUDY    18  13  80 VRB5      29.95R WCI  11
PINE BLUFFS    CLOUDY    18  14  86 NE10      29.90R WCI   6

$$



USA.gov is the U.S. government's official web portal to all federal, state and local government web resources and services.